STARLINK-31108, 58738

Orbit data source: Space-Track

STARLINK-31108, 58738 is a payload satellite owned by SpaceX/Seattle (US) in LEO that was launched on Sun, 07 Jan 2024 UTC via an FALCON 9 launch vehicle from the Air Force Eastern Test Range (AFETR). Payload-class satellites include a variety of spacecraft equipped with specific instruments for various scientific and technological missions. These include communications satellites like Starlink; space stations such as the ISS; scientific satellites like the Hubble; Earth observation satellites from companies like Planet Labs, Umbra, and HawkEye 360; GPS; miniature CubeSats for education and research; and military/defense satellites.

Loading next visibility...
Identifier
58738, 2024-005L
Orbit
LEO
Country
Flag of USUS
Related business
Manufacturer
SpaceX/Seattle
Mission
Operational Commercial Communications
Bus & Motor
STARLINK V2M, Unknown motor
Mass
730 kg wet, ~700 kg dry
Launch date (UTC)
2024-01-07 (2 years ago)
Launch vehicle
FALCON 9
Launch site
Air Force Eastern Test Range (AFETR)
Object type
Payload
Rocket body
Debris
Shape & HBR
Box + 2 Pan, 17.7 m
Radar Cross Section
33.884 m², Large (>1 m²)

Expand to show TLE details & history
Last TLE update: 3 days ago

TLE from 3 days ago
0 STARLINK-31108
1 58738U 24005L   26170.61577544  .00000812  00000-0  39030-4 0  9997
2 58738  43.0044   3.9811 0001678 265.5182  94.5478 15.27581346136022
Epoch: 2026-06-19T14:46Z
TLE epoch observation values (Epoch: 2026-06-19T14:46:42.998Z)
Latitude
Longitude
-125.54026°
Altitude
482.912 km
Speed
7.626 km/s
True Right ascension
00h 15m 55s
True Declination
0° 00' 00"
Sunlit
Object was in daylight at epoch
Visualization orbit readout
Latitude
Unknown
Longitude
Unknown
Altitude
Unknown
Speed
Unknown
Apparent Right ascension
Unknown
Apparent Declination
Unknown
Sunlit
N/A
Visualization observer readout
Local Sidereal Time
21:25:28
Azimuth
Unknown
Elevation
Unknown
Doppler factor
Unknown
Orbital elements
Apogee altitude
486.141 km
Perigee altitude
483.838 km
Semi-major axis
6,863.127 km
Eccentricity
0.00017
Inclination
43.0044°
RAAN
3.9811°
Arg. of periapsis
265.5182°
True anomaly
94.56697°
Mean anomaly
94.5478°
Eccentric anomaly
94.55738°
Mean motion
3.81733 °/min
Orbital period
94.31 mins
BSTAR
0.00003903
Loading maneuver chart data...
Computing Atmospheric mass density...
Loading historical data...
Loading historical data...
Loading historical data...
Loading historical data...
Loading historical data...
Loading historical data...
Loading historical data...

Documentation

Showing up to 5 results
|